Index of /20260506/WXO-DD/model_caps/3km/12/012
Name Last modified Size Description
Parent Directory -
20260506T12Z_MSC_CAPS_AbsoluteVorticity_IsbL-0250_RLatLon0.03_PT012H.grib2 2026-05-06 18:13 1.1M
20260506T12Z_MSC_CAPS_AbsoluteVorticity_IsbL-0500_RLatLon0.03_PT012H.grib2 2026-05-06 18:13 1.1M
20260506T12Z_MSC_CAPS_AbsoluteVorticity_IsbL-0700_RLatLon0.03_PT012H.grib2 2026-05-06 18:13 1.3M
20260506T12Z_MSC_CAPS_AbsoluteVorticity_IsbL-0850_RLatLon0.03_PT012H.grib2 2026-05-06 18:13 1.5M
20260506T12Z_MSC_CAPS_AbsoluteVorticity_IsbL-1000_RLatLon0.03_PT012H.grib2 2026-05-06 18:13 1.3M
20260506T12Z_MSC_CAPS_AirDensity_AGL-120m_RLatLon0.03_PT012H.grib2 2026-05-06 18:13 1.4M
20260506T12Z_MSC_CAPS_AirDensity_AGL-40m_RLatLon0.03_PT012H.grib2 2026-05-06 18:13 1.4M
20260506T12Z_MSC_CAPS_AirDensity_AGL-80m_RLatLon0.03_PT012H.grib2 2026-05-06 18:13 1.4M
20260506T12Z_MSC_CAPS_AirTemp_AGL-120m_RLatLon0.03_PT012H.grib2 2026-05-06 18:13 1.4M
20260506T12Z_MSC_CAPS_AirTemp_AGL-2m_RLatLon0.03_PT012H.grib2 2026-05-06 18:13 1.8M
20260506T12Z_MSC_CAPS_AirTemp_AGL-40m_RLatLon0.03_PT012H.grib2 2026-05-06 18:13 1.5M
20260506T12Z_MSC_CAPS_AirTemp_AGL-80m_RLatLon0.03_PT012H.grib2 2026-05-06 18:13 1.4M
20260506T12Z_MSC_CAPS_AirTemp_IsbL-0050_RLatLon0.03_PT012H.grib2 2026-05-06 18:13 688K
20260506T12Z_MSC_CAPS_AirTemp_IsbL-0100_RLatLon0.03_PT012H.grib2 2026-05-06 18:13 944K
20260506T12Z_MSC_CAPS_AirTemp_IsbL-0150_RLatLon0.03_PT012H.grib2 2026-05-06 18:13 745K
20260506T12Z_MSC_CAPS_AirTemp_IsbL-0175_RLatLon0.03_PT012H.grib2 2026-05-06 18:13 774K
20260506T12Z_MSC_CAPS_AirTemp_IsbL-0200_RLatLon0.03_PT012H.grib2 2026-05-06 18:13 802K
20260506T12Z_MSC_CAPS_AirTemp_IsbL-0225_RLatLon0.03_PT012H.grib2 2026-05-06 18:13 800K
20260506T12Z_MSC_CAPS_AirTemp_IsbL-0250_RLatLon0.03_PT012H.grib2 2026-05-06 18:13 1.0M
20260506T12Z_MSC_CAPS_AirTemp_IsbL-0275_RLatLon0.03_PT012H.grib2 2026-05-06 18:13 1.0M
20260506T12Z_MSC_CAPS_AirTemp_IsbL-0300_RLatLon0.03_PT012H.grib2 2026-05-06 18:13 1.0M
20260506T12Z_MSC_CAPS_AirTemp_IsbL-0350_RLatLon0.03_PT012H.grib2 2026-05-06 18:13 755K
20260506T12Z_MSC_CAPS_AirTemp_IsbL-0400_RLatLon0.03_PT012H.grib2 2026-05-06 18:13 758K
20260506T12Z_MSC_CAPS_AirTemp_IsbL-0450_RLatLon0.03_PT012H.grib2 2026-05-06 18:13 772K
20260506T12Z_MSC_CAPS_AirTemp_IsbL-0500_RLatLon0.03_PT012H.grib2 2026-05-06 18:13 786K
20260506T12Z_MSC_CAPS_AirTemp_IsbL-0550_RLatLon0.03_PT012H.grib2 2026-05-06 18:13 798K
20260506T12Z_MSC_CAPS_AirTemp_IsbL-0600_RLatLon0.03_PT012H.grib2 2026-05-06 18:13 814K
20260506T12Z_MSC_CAPS_AirTemp_IsbL-0650_RLatLon0.03_PT012H.grib2 2026-05-06 18:13 844K
20260506T12Z_MSC_CAPS_AirTemp_IsbL-0700_RLatLon0.03_PT012H.grib2 2026-05-06 18:13 883K
20260506T12Z_MSC_CAPS_AirTemp_IsbL-0750_RLatLon0.03_PT012H.grib2 2026-05-06 18:13 915K
20260506T12Z_MSC_CAPS_AirTemp_IsbL-0800_RLatLon0.03_PT012H.grib2 2026-05-06 18:13 1.1M
20260506T12Z_MSC_CAPS_AirTemp_IsbL-0850_RLatLon0.03_PT012H.grib2 2026-05-06 18:13 1.1M
20260506T12Z_MSC_CAPS_AirTemp_IsbL-0875_RLatLon0.03_PT012H.grib2 2026-05-06 18:13 1.1M
20260506T12Z_MSC_CAPS_AirTemp_IsbL-0900_RLatLon0.03_PT012H.grib2 2026-05-06 18:13 1.0M
20260506T12Z_MSC_CAPS_AirTemp_IsbL-0925_RLatLon0.03_PT012H.grib2 2026-05-06 18:13 1.0M
20260506T12Z_MSC_CAPS_AirTemp_IsbL-0950_RLatLon0.03_PT012H.grib2 2026-05-06 18:13 1.1M
20260506T12Z_MSC_CAPS_AirTemp_IsbL-0970_RLatLon0.03_PT012H.grib2 2026-05-06 18:13 1.1M
20260506T12Z_MSC_CAPS_AirTemp_IsbL-0985_RLatLon0.03_PT012H.grib2 2026-05-06 18:13 1.1M
20260506T12Z_MSC_CAPS_AirTemp_IsbL-1000_RLatLon0.03_PT012H.grib2 2026-05-06 18:13 1.0M
20260506T12Z_MSC_CAPS_AirTemp_IsbL-1015_RLatLon0.03_PT012H.grib2 2026-05-06 18:13 1.1M
20260506T12Z_MSC_CAPS_Albedo_Sfc_RLatLon0.03_PT012H.grib2 2026-05-06 18:13 2.7M
20260506T12Z_MSC_CAPS_CAPE_Sfc_RLatLon0.03_PT012H.grib2 2026-05-06 18:13 274K
20260506T12Z_MSC_CAPS_CloudWater_EAtm_RLatLon0.03_PT012H.grib2 2026-05-06 18:13 1.5M
20260506T12Z_MSC_CAPS_ConvectivePrecip-Accum_Sfc_RLatLon0.03_PT012H.grib2 2026-05-06 18:13 2.9M
20260506T12Z_MSC_CAPS_DewPointDepression_AGL-120m_RLatLon0.03_PT012H.grib2 2026-05-06 18:13 2.1M
20260506T12Z_MSC_CAPS_DewPointDepression_AGL-2m_RLatLon0.03_PT012H.grib2 2026-05-06 18:13 2.3M
20260506T12Z_MSC_CAPS_DewPointDepression_AGL-40m_RLatLon0.03_PT012H.grib2 2026-05-06 18:13 2.2M
20260506T12Z_MSC_CAPS_DewPointDepression_AGL-80m_RLatLon0.03_PT012H.grib2 2026-05-06 18:13 2.2M
20260506T12Z_MSC_CAPS_DewPointDepression_IsbL-0050_RLatLon0.03_PT012H.grib2 2026-05-06 18:13 3.4K
20260506T12Z_MSC_CAPS_DewPointDepression_IsbL-0100_RLatLon0.03_PT012H.grib2 2026-05-06 18:13 56K
20260506T12Z_MSC_CAPS_DewPointDepression_IsbL-0150_RLatLon0.03_PT012H.grib2 2026-05-06 18:13 41K
20260506T12Z_MSC_CAPS_DewPointDepression_IsbL-0175_RLatLon0.03_PT012H.grib2 2026-05-06 18:13 208K
20260506T12Z_MSC_CAPS_DewPointDepression_IsbL-0200_RLatLon0.03_PT012H.grib2 2026-05-06 18:13 410K
20260506T12Z_MSC_CAPS_DewPointDepression_IsbL-0225_RLatLon0.03_PT012H.grib2 2026-05-06 18:13 597K
20260506T12Z_MSC_CAPS_DewPointDepression_IsbL-0250_RLatLon0.03_PT012H.grib2 2026-05-06 18:13 818K
20260506T12Z_MSC_CAPS_DewPointDepression_IsbL-0275_RLatLon0.03_PT012H.grib2 2026-05-06 18:13 1.0M
20260506T12Z_MSC_CAPS_DewPointDepression_IsbL-0300_RLatLon0.03_PT012H.grib2 2026-05-06 18:13 1.0M
20260506T12Z_MSC_CAPS_DewPointDepression_IsbL-0350_RLatLon0.03_PT012H.grib2 2026-05-06 18:13 1.1M
20260506T12Z_MSC_CAPS_DewPointDepression_IsbL-0400_RLatLon0.03_PT012H.grib2 2026-05-06 18:13 1.1M
20260506T12Z_MSC_CAPS_DewPointDepression_IsbL-0450_RLatLon0.03_PT012H.grib2 2026-05-06 18:13 1.1M
20260506T12Z_MSC_CAPS_DewPointDepression_IsbL-0500_RLatLon0.03_PT012H.grib2 2026-05-06 18:13 1.2M
20260506T12Z_MSC_CAPS_DewPointDepression_IsbL-0550_RLatLon0.03_PT012H.grib2 2026-05-06 18:13 1.2M
20260506T12Z_MSC_CAPS_DewPointDepression_IsbL-0600_RLatLon0.03_PT012H.grib2 2026-05-06 18:13 1.2M
20260506T12Z_MSC_CAPS_DewPointDepression_IsbL-0650_RLatLon0.03_PT012H.grib2 2026-05-06 18:13 1.2M
20260506T12Z_MSC_CAPS_DewPointDepression_IsbL-0700_RLatLon0.03_PT012H.grib2 2026-05-06 18:13 1.3M
20260506T12Z_MSC_CAPS_DewPointDepression_IsbL-0750_RLatLon0.03_PT012H.grib2 2026-05-06 18:13 1.3M
20260506T12Z_MSC_CAPS_DewPointDepression_IsbL-0800_RLatLon0.03_PT012H.grib2 2026-05-06 18:13 1.3M
20260506T12Z_MSC_CAPS_DewPointDepression_IsbL-0850_RLatLon0.03_PT012H.grib2 2026-05-06 18:13 1.4M
20260506T12Z_MSC_CAPS_DewPointDepression_IsbL-0875_RLatLon0.03_PT012H.grib2 2026-05-06 18:13 1.4M
20260506T12Z_MSC_CAPS_DewPointDepression_IsbL-0900_RLatLon0.03_PT012H.grib2 2026-05-06 18:13 1.4M
20260506T12Z_MSC_CAPS_DewPointDepression_IsbL-0925_RLatLon0.03_PT012H.grib2 2026-05-06 18:13 1.4M
20260506T12Z_MSC_CAPS_DewPointDepression_IsbL-0950_RLatLon0.03_PT012H.grib2 2026-05-06 18:13 1.4M
20260506T12Z_MSC_CAPS_DewPointDepression_IsbL-0970_RLatLon0.03_PT012H.grib2 2026-05-06 18:13 1.4M
20260506T12Z_MSC_CAPS_DewPointDepression_IsbL-0985_RLatLon0.03_PT012H.grib2 2026-05-06 18:13 1.4M
20260506T12Z_MSC_CAPS_DewPointDepression_IsbL-1000_RLatLon0.03_PT012H.grib2 2026-05-06 18:13 1.4M
20260506T12Z_MSC_CAPS_DewPointDepression_IsbL-1015_RLatLon0.03_PT012H.grib2 2026-05-06 18:13 1.4M
20260506T12Z_MSC_CAPS_DewPoint_AGL-120m_RLatLon0.03_PT012H.grib2 2026-05-06 18:13 3.7M
20260506T12Z_MSC_CAPS_DewPoint_AGL-2m_RLatLon0.03_PT012H.grib2 2026-05-06 18:13 1.8M
20260506T12Z_MSC_CAPS_DewPoint_AGL-40m_RLatLon0.03_PT012H.grib2 2026-05-06 18:13 3.8M
20260506T12Z_MSC_CAPS_DewPoint_AGL-80m_RLatLon0.03_PT012H.grib2 2026-05-06 18:13 3.7M
20260506T12Z_MSC_CAPS_DownwardLongwaveRadiationFlux-Accum_Sfc_RLatLon0.03_PT012H.grib2 2026-05-06 18:13 2.5M
20260506T12Z_MSC_CAPS_DownwardShortwaveRadiationFlux-Accum_NTAtm_RLatLon0.03_PT012H.grib2 2026-05-06 18:13 447K
20260506T12Z_MSC_CAPS_DownwardShortwaveRadiationFlux-Accum_Sfc_RLatLon0.03_PT012H.grib2 2026-05-06 18:13 2.9M
20260506T12Z_MSC_CAPS_FreezingRain-Accum_Sfc_RLatLon0.03_PT012H.grib2 2026-05-06 18:13 372K
20260506T12Z_MSC_CAPS_GeopotentialHeight_IsbL-0050_RLatLon0.03_PT012H.grib2 2026-05-06 18:13 818K
20260506T12Z_MSC_CAPS_GeopotentialHeight_IsbL-0100_RLatLon0.03_PT012H.grib2 2026-05-06 18:13 738K
20260506T12Z_MSC_CAPS_GeopotentialHeight_IsbL-0150_RLatLon0.03_PT012H.grib2 2026-05-06 18:13 602K
20260506T12Z_MSC_CAPS_GeopotentialHeight_IsbL-0175_RLatLon0.03_PT012H.grib2 2026-05-06 18:13 717K
20260506T12Z_MSC_CAPS_GeopotentialHeight_IsbL-0200_RLatLon0.03_PT012H.grib2 2026-05-06 18:13 739K
20260506T12Z_MSC_CAPS_GeopotentialHeight_IsbL-0225_RLatLon0.03_PT012H.grib2 2026-05-06 18:13 753K
20260506T12Z_MSC_CAPS_GeopotentialHeight_IsbL-0250_RLatLon0.03_PT012H.grib2 2026-05-06 18:13 764K
20260506T12Z_MSC_CAPS_GeopotentialHeight_IsbL-0275_RLatLon0.03_PT012H.grib2 2026-05-06 18:13 768K
20260506T12Z_MSC_CAPS_GeopotentialHeight_IsbL-0300_RLatLon0.03_PT012H.grib2 2026-05-06 18:13 776K
20260506T12Z_MSC_CAPS_GeopotentialHeight_IsbL-0350_RLatLon0.03_PT012H.grib2 2026-05-06 18:13 779K
20260506T12Z_MSC_CAPS_GeopotentialHeight_IsbL-0400_RLatLon0.03_PT012H.grib2 2026-05-06 18:13 774K
20260506T12Z_MSC_CAPS_GeopotentialHeight_IsbL-0450_RLatLon0.03_PT012H.grib2 2026-05-06 18:13 767K
20260506T12Z_MSC_CAPS_GeopotentialHeight_IsbL-0500_RLatLon0.03_PT012H.grib2 2026-05-06 18:13 762K
20260506T12Z_MSC_CAPS_GeopotentialHeight_IsbL-0550_RLatLon0.03_PT012H.grib2 2026-05-06 18:13 752K
20260506T12Z_MSC_CAPS_GeopotentialHeight_IsbL-0600_RLatLon0.03_PT012H.grib2 2026-05-06 18:13 636K
20260506T12Z_MSC_CAPS_GeopotentialHeight_IsbL-0650_RLatLon0.03_PT012H.grib2 2026-05-06 18:13 634K
20260506T12Z_MSC_CAPS_GeopotentialHeight_IsbL-0700_RLatLon0.03_PT012H.grib2 2026-05-06 18:13 807K
20260506T12Z_MSC_CAPS_GeopotentialHeight_IsbL-0750_RLatLon0.03_PT012H.grib2 2026-05-06 18:13 810K
20260506T12Z_MSC_CAPS_GeopotentialHeight_IsbL-0800_RLatLon0.03_PT012H.grib2 2026-05-06 18:13 813K
20260506T12Z_MSC_CAPS_GeopotentialHeight_IsbL-0850_RLatLon0.03_PT012H.grib2 2026-05-06 18:13 819K
20260506T12Z_MSC_CAPS_GeopotentialHeight_IsbL-0875_RLatLon0.03_PT012H.grib2 2026-05-06 18:13 812K
20260506T12Z_MSC_CAPS_GeopotentialHeight_IsbL-0900_RLatLon0.03_PT012H.grib2 2026-05-06 18:13 831K
20260506T12Z_MSC_CAPS_GeopotentialHeight_IsbL-0925_RLatLon0.03_PT012H.grib2 2026-05-06 18:13 839K
20260506T12Z_MSC_CAPS_GeopotentialHeight_IsbL-0950_RLatLon0.03_PT012H.grib2 2026-05-06 18:13 850K
20260506T12Z_MSC_CAPS_GeopotentialHeight_IsbL-0970_RLatLon0.03_PT012H.grib2 2026-05-06 18:13 852K
20260506T12Z_MSC_CAPS_GeopotentialHeight_IsbL-0985_RLatLon0.03_PT012H.grib2 2026-05-06 18:13 866K
20260506T12Z_MSC_CAPS_GeopotentialHeight_IsbL-1000_RLatLon0.03_PT012H.grib2 2026-05-06 18:13 878K
20260506T12Z_MSC_CAPS_GeopotentialHeight_IsbL-1015_RLatLon0.03_PT012H.grib2 2026-05-06 18:13 890K
20260506T12Z_MSC_CAPS_GeopotentialHeight_Sfc_RLatLon0.03_PT012H.grib2 2026-05-06 18:13 1.0M
20260506T12Z_MSC_CAPS_IcePellets-Accum_Sfc_RLatLon0.03_PT012H.grib2 2026-05-06 18:13 22K
20260506T12Z_MSC_CAPS_LatentHeatNetFlux_Sfc_RLatLon0.03_PT012H.grib2 2026-05-06 18:13 1.7M
20260506T12Z_MSC_CAPS_LiftedIndex-MU-VT_IsbL-0500_RLatLon0.03_PT012H.grib2 2026-05-06 18:13 3.3M
20260506T12Z_MSC_CAPS_MixedLayerThickness_Sfc_RLatLon0.03_PT012H.nc 2026-05-06 18:13 17M
20260506T12Z_MSC_CAPS_NetLongwaveRadiationFlux-Accum_Sfc_RLatLon0.03_PT012H.grib2 2026-05-06 18:13 2.7M
20260506T12Z_MSC_CAPS_NetShortwaveRadiationFlux-Accum_Sfc_RLatLon0.03_PT012H.grib2 2026-05-06 18:13 2.9M
20260506T12Z_MSC_CAPS_PlanetaryBoundaryLayerHeight_Sfc_RLatLon0.03_PT012H.grib2 2026-05-06 18:13 3.0M
20260506T12Z_MSC_CAPS_Precip-Accum_Sfc_RLatLon0.03_PT012H.grib2 2026-05-06 18:13 3.9M
20260506T12Z_MSC_CAPS_PrecipRate_Sfc_RLatLon0.03_PT012H.grib2 2026-05-06 18:13 399K
20260506T12Z_MSC_CAPS_PrecipType-Instant_Sfc_RLatLon0.03_PT012H.grib2 2026-05-06 18:13 1.8M
20260506T12Z_MSC_CAPS_Pressure_MSL_RLatLon0.03_PT012H.grib2 2026-05-06 18:13 915K
20260506T12Z_MSC_CAPS_Pressure_Sfc_RLatLon0.03_PT012H.grib2 2026-05-06 18:13 1.2M
20260506T12Z_MSC_CAPS_RadiativeTemp_Sfc_RLatLon0.03_PT012H.grib2 2026-05-06 18:13 2.1M
20260506T12Z_MSC_CAPS_Rain-Accum_Sfc_RLatLon0.03_PT012H.grib2 2026-05-06 18:13 1.8M
20260506T12Z_MSC_CAPS_RelativeHumidity_AGL-120m_RLatLon0.03_PT012H.grib2 2026-05-06 18:13 2.9M
20260506T12Z_MSC_CAPS_RelativeHumidity_AGL-2m_RLatLon0.03_PT012H.grib2 2026-05-06 18:13 3.0M
20260506T12Z_MSC_CAPS_RelativeHumidity_AGL-40m_RLatLon0.03_PT012H.grib2 2026-05-06 18:13 2.9M
20260506T12Z_MSC_CAPS_RelativeHumidity_AGL-80m_RLatLon0.03_PT012H.grib2 2026-05-06 18:13 2.9M
20260506T12Z_MSC_CAPS_RelativeHumidity_IsbL-0050_RLatLon0.03_PT012H.grib2 2026-05-06 18:13 710K
20260506T12Z_MSC_CAPS_RelativeHumidity_IsbL-0100_RLatLon0.03_PT012H.grib2 2026-05-06 18:13 1.1M
20260506T12Z_MSC_CAPS_RelativeHumidity_IsbL-0150_RLatLon0.03_PT012H.grib2 2026-05-06 18:13 463K
20260506T12Z_MSC_CAPS_RelativeHumidity_IsbL-0175_RLatLon0.03_PT012H.grib2 2026-05-06 18:13 464K
20260506T12Z_MSC_CAPS_RelativeHumidity_IsbL-0200_RLatLon0.03_PT012H.grib2 2026-05-06 18:13 645K
20260506T12Z_MSC_CAPS_RelativeHumidity_IsbL-0225_RLatLon0.03_PT012H.grib2 2026-05-06 18:13 884K
20260506T12Z_MSC_CAPS_RelativeHumidity_IsbL-0250_RLatLon0.03_PT012H.grib2 2026-05-06 18:13 1.1M
20260506T12Z_MSC_CAPS_RelativeHumidity_IsbL-0275_RLatLon0.03_PT012H.grib2 2026-05-06 18:13 1.4M
20260506T12Z_MSC_CAPS_RelativeHumidity_IsbL-0300_RLatLon0.03_PT012H.grib2 2026-05-06 18:13 1.7M
20260506T12Z_MSC_CAPS_RelativeHumidity_IsbL-0350_RLatLon0.03_PT012H.grib2 2026-05-06 18:13 1.9M
20260506T12Z_MSC_CAPS_RelativeHumidity_IsbL-0400_RLatLon0.03_PT012H.grib2 2026-05-06 18:13 2.1M
20260506T12Z_MSC_CAPS_RelativeHumidity_IsbL-0450_RLatLon0.03_PT012H.grib2 2026-05-06 18:13 2.0M
20260506T12Z_MSC_CAPS_RelativeHumidity_IsbL-0500_RLatLon0.03_PT012H.grib2 2026-05-06 18:13 2.1M
20260506T12Z_MSC_CAPS_RelativeHumidity_IsbL-0550_RLatLon0.03_PT012H.grib2 2026-05-06 18:13 2.1M
20260506T12Z_MSC_CAPS_RelativeHumidity_IsbL-0600_RLatLon0.03_PT012H.grib2 2026-05-06 18:13 2.0M
20260506T12Z_MSC_CAPS_RelativeHumidity_IsbL-0650_RLatLon0.03_PT012H.grib2 2026-05-06 18:13 2.2M
20260506T12Z_MSC_CAPS_RelativeHumidity_IsbL-0700_RLatLon0.03_PT012H.grib2 2026-05-06 18:13 2.3M
20260506T12Z_MSC_CAPS_RelativeHumidity_IsbL-0750_RLatLon0.03_PT012H.grib2 2026-05-06 18:13 2.3M
20260506T12Z_MSC_CAPS_RelativeHumidity_IsbL-0800_RLatLon0.03_PT012H.grib2 2026-05-06 18:13 2.4M
20260506T12Z_MSC_CAPS_RelativeHumidity_IsbL-0850_RLatLon0.03_PT012H.grib2 2026-05-06 18:13 2.5M
20260506T12Z_MSC_CAPS_RelativeHumidity_IsbL-0875_RLatLon0.03_PT012H.grib2 2026-05-06 18:13 2.7M
20260506T12Z_MSC_CAPS_RelativeHumidity_IsbL-0900_RLatLon0.03_PT012H.grib2 2026-05-06 18:13 2.7M
20260506T12Z_MSC_CAPS_RelativeHumidity_IsbL-0925_RLatLon0.03_PT012H.grib2 2026-05-06 18:13 2.8M
20260506T12Z_MSC_CAPS_RelativeHumidity_IsbL-0950_RLatLon0.03_PT012H.grib2 2026-05-06 18:13 2.8M
20260506T12Z_MSC_CAPS_RelativeHumidity_IsbL-0970_RLatLon0.03_PT012H.grib2 2026-05-06 18:13 2.9M
20260506T12Z_MSC_CAPS_RelativeHumidity_IsbL-0985_RLatLon0.03_PT012H.grib2 2026-05-06 18:13 2.9M
20260506T12Z_MSC_CAPS_RelativeHumidity_IsbL-1000_RLatLon0.03_PT012H.grib2 2026-05-06 18:13 3.0M
20260506T12Z_MSC_CAPS_RelativeHumidity_IsbL-1015_RLatLon0.03_PT012H.grib2 2026-05-06 18:13 3.0M
20260506T12Z_MSC_CAPS_Runoff-Accum_Sfc_RLatLon0.03_PT012H.grib2 2026-05-06 18:13 280K
20260506T12Z_MSC_CAPS_SeaIceAreaFraction_Sfc_RLatLon0.03_PT012H.nc 2026-05-06 18:13 15M
20260506T12Z_MSC_CAPS_SeaIceCompressiveStrength_Sfc_RLatLon0.03_PT012H.nc 2026-05-06 18:13 15M
20260506T12Z_MSC_CAPS_SeaIceDivergence_Sfc_RLatLon0.03_PT012H.nc 2026-05-06 18:13 15M
20260506T12Z_MSC_CAPS_SeaIceInternalPressure_Sfc_RLatLon0.03_PT012H.nc 2026-05-06 18:13 15M
20260506T12Z_MSC_CAPS_SeaIceShear_Sfc_RLatLon0.03_PT012H.nc 2026-05-06 18:13 15M
20260506T12Z_MSC_CAPS_SeaIceSnowTemp_Sfc_RLatLon0.03_PT012H.nc 2026-05-06 18:13 14M
20260506T12Z_MSC_CAPS_SeaIceSnowVolume_Sfc_RLatLon0.03_PT012H.nc 2026-05-06 18:13 15M
20260506T12Z_MSC_CAPS_SeaIceVelocityX_Sfc_RLatLon0.03_PT012H.nc 2026-05-06 18:13 15M
20260506T12Z_MSC_CAPS_SeaIceVelocityY_Sfc_RLatLon0.03_PT012H.nc 2026-05-06 18:13 15M
20260506T12Z_MSC_CAPS_SeaIceVolume_Sfc_RLatLon0.03_PT012H.nc 2026-05-06 18:13 15M
20260506T12Z_MSC_CAPS_SeaSurfaceHeight_Sfc_RLatLon0.03_PT012H.nc 2026-05-06 18:13 16M
20260506T12Z_MSC_CAPS_SeaWaterSalinity_DBS-0.5m_RLatLon0.03_PT012H.nc 2026-05-06 18:13 16M
20260506T12Z_MSC_CAPS_SeaWaterSalinity_DBS-all_RLatLon0.03_PT012H.nc 2026-05-06 18:13 107M
20260506T12Z_MSC_CAPS_SeaWaterTemp_DBS-0.5m_RLatLon0.03_PT012H.nc 2026-05-06 18:13 15M
20260506T12Z_MSC_CAPS_SeaWaterTemp_DBS-all_RLatLon0.03_PT012H.nc 2026-05-06 18:13 88M
20260506T12Z_MSC_CAPS_SeaWaterVelocityX_DBS-0.5m_RLatLon0.03_PT012H.nc 2026-05-06 18:13 17M
20260506T12Z_MSC_CAPS_SeaWaterVelocityX_DBS-all_RLatLon0.03_PT012H.nc 2026-05-06 18:13 212M
20260506T12Z_MSC_CAPS_SeaWaterVelocityY_DBS-0.5m_RLatLon0.03_PT012H.nc 2026-05-06 18:13 18M
20260506T12Z_MSC_CAPS_SeaWaterVelocityY_DBS-all_RLatLon0.03_PT012H.nc 2026-05-06 18:13 217M
20260506T12Z_MSC_CAPS_SensibleHeatNetFlux_Sfc_RLatLon0.03_PT012H.grib2 2026-05-06 18:13 2.2M
20260506T12Z_MSC_CAPS_ShowalterIndex_IsbL-0500_RLatLon0.03_PT012H.grib2 2026-05-06 18:13 4.3M
20260506T12Z_MSC_CAPS_Snow-Accum_Sfc_RLatLon0.03_PT012H.grib2 2026-05-06 18:13 2.9M
20260506T12Z_MSC_CAPS_SnowDensity_Sfc_RLatLon0.03_PT012H.grib2 2026-05-06 18:13 1.2M
20260506T12Z_MSC_CAPS_SnowDepthWaterEquivalent_Sfc_RLatLon0.03_PT012H.grib2 2026-05-06 18:13 647K
20260506T12Z_MSC_CAPS_SnowDepth_Sfc_RLatLon0.03_PT012H.grib2 2026-05-06 18:13 1.1M
20260506T12Z_MSC_CAPS_SoilTemp_DBS-0to10cm_RLatLon0.03_PT012H.grib2 2026-05-06 18:13 1.5M
20260506T12Z_MSC_CAPS_SoilTemp_Sfc_RLatLon0.03_PT012H.grib2 2026-05-06 18:13 1.9M
20260506T12Z_MSC_CAPS_SoilVolumetricIceContent_Sfc_RLatLon0.03_PT012H.grib2 2026-05-06 18:13 1.3M
20260506T12Z_MSC_CAPS_SoilVolumetricWaterContent_DBS-0to10cm_RLatLon0.03_PT012H.grib2 2026-05-06 18:13 1.3M
20260506T12Z_MSC_CAPS_SoilVolumetricWaterContent_DBS-0to1cm_RLatLon0.03_PT012H.grib2 2026-05-06 18:13 1.7M
20260506T12Z_MSC_CAPS_SpecificHumidity_AGL-120m_RLatLon0.03_PT012H.grib2 2026-05-06 18:13 1.9M
20260506T12Z_MSC_CAPS_SpecificHumidity_AGL-2m_RLatLon0.03_PT012H.grib2 2026-05-06 18:13 1.8M
20260506T12Z_MSC_CAPS_SpecificHumidity_AGL-40m_RLatLon0.03_PT012H.grib2 2026-05-06 18:13 2.0M
20260506T12Z_MSC_CAPS_SpecificHumidity_AGL-80m_RLatLon0.03_PT012H.grib2 2026-05-06 18:13 1.9M
20260506T12Z_MSC_CAPS_SpecificHumidity_IsbL-0050_RLatLon0.03_PT012H.grib2 2026-05-06 18:13 886K
20260506T12Z_MSC_CAPS_SpecificHumidity_IsbL-0100_RLatLon0.03_PT012H.grib2 2026-05-06 18:13 1.1M
20260506T12Z_MSC_CAPS_SpecificHumidity_IsbL-0150_RLatLon0.03_PT012H.grib2 2026-05-06 18:13 744K
20260506T12Z_MSC_CAPS_SpecificHumidity_IsbL-0175_RLatLon0.03_PT012H.grib2 2026-05-06 18:13 1.0M
20260506T12Z_MSC_CAPS_SpecificHumidity_IsbL-0200_RLatLon0.03_PT012H.grib2 2026-05-06 18:13 862K
20260506T12Z_MSC_CAPS_SpecificHumidity_IsbL-0225_RLatLon0.03_PT012H.grib2 2026-05-06 18:13 831K
20260506T12Z_MSC_CAPS_SpecificHumidity_IsbL-0250_RLatLon0.03_PT012H.grib2 2026-05-06 18:13 832K
20260506T12Z_MSC_CAPS_SpecificHumidity_IsbL-0275_RLatLon0.03_PT012H.grib2 2026-05-06 18:13 1.1M
20260506T12Z_MSC_CAPS_SpecificHumidity_IsbL-0300_RLatLon0.03_PT012H.grib2 2026-05-06 18:13 1.0M
20260506T12Z_MSC_CAPS_SpecificHumidity_IsbL-0350_RLatLon0.03_PT012H.grib2 2026-05-06 18:13 1.0M
20260506T12Z_MSC_CAPS_SpecificHumidity_IsbL-0400_RLatLon0.03_PT012H.grib2 2026-05-06 18:13 1.0M
20260506T12Z_MSC_CAPS_SpecificHumidity_IsbL-0450_RLatLon0.03_PT012H.grib2 2026-05-06 18:13 1.1M
20260506T12Z_MSC_CAPS_SpecificHumidity_IsbL-0500_RLatLon0.03_PT012H.grib2 2026-05-06 18:13 1.0M
20260506T12Z_MSC_CAPS_SpecificHumidity_IsbL-0550_RLatLon0.03_PT012H.grib2 2026-05-06 18:13 1.2M
20260506T12Z_MSC_CAPS_SpecificHumidity_IsbL-0600_RLatLon0.03_PT012H.grib2 2026-05-06 18:13 1.3M
20260506T12Z_MSC_CAPS_SpecificHumidity_IsbL-0650_RLatLon0.03_PT012H.grib2 2026-05-06 18:13 1.5M
20260506T12Z_MSC_CAPS_SpecificHumidity_IsbL-0700_RLatLon0.03_PT012H.grib2 2026-05-06 18:13 1.3M
20260506T12Z_MSC_CAPS_SpecificHumidity_IsbL-0750_RLatLon0.03_PT012H.grib2 2026-05-06 18:13 1.4M
20260506T12Z_MSC_CAPS_SpecificHumidity_IsbL-0800_RLatLon0.03_PT012H.grib2 2026-05-06 18:13 1.6M
20260506T12Z_MSC_CAPS_SpecificHumidity_IsbL-0850_RLatLon0.03_PT012H.grib2 2026-05-06 18:13 1.7M
20260506T12Z_MSC_CAPS_SpecificHumidity_IsbL-0875_RLatLon0.03_PT012H.grib2 2026-05-06 18:13 1.9M
20260506T12Z_MSC_CAPS_SpecificHumidity_IsbL-0900_RLatLon0.03_PT012H.grib2 2026-05-06 18:13 1.9M
20260506T12Z_MSC_CAPS_SpecificHumidity_IsbL-0925_RLatLon0.03_PT012H.grib2 2026-05-06 18:13 2.0M
20260506T12Z_MSC_CAPS_SpecificHumidity_IsbL-0950_RLatLon0.03_PT012H.grib2 2026-05-06 18:13 1.6M
20260506T12Z_MSC_CAPS_SpecificHumidity_IsbL-0970_RLatLon0.03_PT012H.grib2 2026-05-06 18:13 1.7M
20260506T12Z_MSC_CAPS_SpecificHumidity_IsbL-0985_RLatLon0.03_PT012H.grib2 2026-05-06 18:13 1.7M
20260506T12Z_MSC_CAPS_SpecificHumidity_IsbL-1000_RLatLon0.03_PT012H.grib2 2026-05-06 18:13 1.8M
20260506T12Z_MSC_CAPS_SpecificHumidity_IsbL-1015_RLatLon0.03_PT012H.grib2 2026-05-06 18:13 1.8M
20260506T12Z_MSC_CAPS_SpecificHumidity_Sfc_RLatLon0.03_PT012H.grib2 2026-05-06 18:13 2.1M
20260506T12Z_MSC_CAPS_StormRelativeHelicity_Sfc_RLatLon0.03_PT012H.grib2 2026-05-06 18:13 3.2M
20260506T12Z_MSC_CAPS_Thickness_IsbL-1000to0500_RLatLon0.03_PT012H.grib2 2026-05-06 18:13 416K
20260506T12Z_MSC_CAPS_TotalCloudCover_Sfc_RLatLon0.03_PT012H.grib2 2026-05-06 18:13 3.7M
20260506T12Z_MSC_CAPS_TurboclineDepth_Sfc_RLatLon0.03_PT012H.nc 2026-05-06 18:13 16M
20260506T12Z_MSC_CAPS_UpwardLongwaveRadiationFlux_NTAtm_RLatLon0.03_PT012H.grib2 2026-05-06 18:13 3.0M
20260506T12Z_MSC_CAPS_UpwardShortwaveRadiationFlux_NTAtm_RLatLon0.03_PT012H.grib2 2026-05-06 18:13 2.2M
20260506T12Z_MSC_CAPS_VerticalVelocity_IsbL-0250_RLatLon0.03_PT012H.grib2 2026-05-06 18:13 1.2M
20260506T12Z_MSC_CAPS_VerticalVelocity_IsbL-0500_RLatLon0.03_PT012H.grib2 2026-05-06 18:13 1.2M
20260506T12Z_MSC_CAPS_VerticalVelocity_IsbL-0700_RLatLon0.03_PT012H.grib2 2026-05-06 18:13 967K
20260506T12Z_MSC_CAPS_VerticalVelocity_IsbL-0850_RLatLon0.03_PT012H.grib2 2026-05-06 18:13 1.5M
20260506T12Z_MSC_CAPS_VerticalVelocity_IsbL-1000_RLatLon0.03_PT012H.grib2 2026-05-06 18:13 1.3M
20260506T12Z_MSC_CAPS_WindDir_AGL-10m_RLatLon0.03_PT012H.grib2 2026-05-06 18:13 2.4M
20260506T12Z_MSC_CAPS_WindDir_AGL-120m_RLatLon0.03_PT012H.grib2 2026-05-06 18:13 1.2M
20260506T12Z_MSC_CAPS_WindDir_AGL-40m_RLatLon0.03_PT012H.grib2 2026-05-06 18:13 1.3M
20260506T12Z_MSC_CAPS_WindDir_AGL-80m_RLatLon0.03_PT012H.grib2 2026-05-06 18:13 1.3M
20260506T12Z_MSC_CAPS_WindDir_IsbL-0050_RLatLon0.03_PT012H.grib2 2026-05-06 18:13 1.1M
20260506T12Z_MSC_CAPS_WindDir_IsbL-0100_RLatLon0.03_PT012H.grib2 2026-05-06 18:13 1.0M
20260506T12Z_MSC_CAPS_WindDir_IsbL-0150_RLatLon0.03_PT012H.grib2 2026-05-06 18:13 1.0M
20260506T12Z_MSC_CAPS_WindDir_IsbL-0175_RLatLon0.03_PT012H.grib2 2026-05-06 18:13 1.0M
20260506T12Z_MSC_CAPS_WindDir_IsbL-0200_RLatLon0.03_PT012H.grib2 2026-05-06 18:13 1.2M
20260506T12Z_MSC_CAPS_WindDir_IsbL-0225_RLatLon0.03_PT012H.grib2 2026-05-06 18:13 1.1M
20260506T12Z_MSC_CAPS_WindDir_IsbL-0250_RLatLon0.03_PT012H.grib2 2026-05-06 18:13 1.1M
20260506T12Z_MSC_CAPS_WindDir_IsbL-0275_RLatLon0.03_PT012H.grib2 2026-05-06 18:13 1.1M
20260506T12Z_MSC_CAPS_WindDir_IsbL-0300_RLatLon0.03_PT012H.grib2 2026-05-06 18:13 1.1M
20260506T12Z_MSC_CAPS_WindDir_IsbL-0350_RLatLon0.03_PT012H.grib2 2026-05-06 18:13 1.1M
20260506T12Z_MSC_CAPS_WindDir_IsbL-0400_RLatLon0.03_PT012H.grib2 2026-05-06 18:13 1.2M
20260506T12Z_MSC_CAPS_WindDir_IsbL-0450_RLatLon0.03_PT012H.grib2 2026-05-06 18:13 1.2M
20260506T12Z_MSC_CAPS_WindDir_IsbL-0500_RLatLon0.03_PT012H.grib2 2026-05-06 18:13 1.2M
20260506T12Z_MSC_CAPS_WindDir_IsbL-0550_RLatLon0.03_PT012H.grib2 2026-05-06 18:13 1.2M
20260506T12Z_MSC_CAPS_WindDir_IsbL-0600_RLatLon0.03_PT012H.grib2 2026-05-06 18:13 1.3M
20260506T12Z_MSC_CAPS_WindDir_IsbL-0650_RLatLon0.03_PT012H.grib2 2026-05-06 18:13 1.3M
20260506T12Z_MSC_CAPS_WindDir_IsbL-0700_RLatLon0.03_PT012H.grib2 2026-05-06 18:13 1.4M
20260506T12Z_MSC_CAPS_WindDir_IsbL-0750_RLatLon0.03_PT012H.grib2 2026-05-06 18:13 1.6M
20260506T12Z_MSC_CAPS_WindDir_IsbL-0800_RLatLon0.03_PT012H.grib2 2026-05-06 18:13 1.7M
20260506T12Z_MSC_CAPS_WindDir_IsbL-0850_RLatLon0.03_PT012H.grib2 2026-05-06 18:13 1.8M
20260506T12Z_MSC_CAPS_WindDir_IsbL-0875_RLatLon0.03_PT012H.grib2 2026-05-06 18:13 1.9M
20260506T12Z_MSC_CAPS_WindDir_IsbL-0900_RLatLon0.03_PT012H.grib2 2026-05-06 18:13 1.9M
20260506T12Z_MSC_CAPS_WindDir_IsbL-0925_RLatLon0.03_PT012H.grib2 2026-05-06 18:13 2.0M
20260506T12Z_MSC_CAPS_WindDir_IsbL-0950_RLatLon0.03_PT012H.grib2 2026-05-06 18:13 2.0M
20260506T12Z_MSC_CAPS_WindDir_IsbL-0970_RLatLon0.03_PT012H.grib2 2026-05-06 18:13 2.1M
20260506T12Z_MSC_CAPS_WindDir_IsbL-0985_RLatLon0.03_PT012H.grib2 2026-05-06 18:13 2.2M
20260506T12Z_MSC_CAPS_WindDir_IsbL-1000_RLatLon0.03_PT012H.grib2 2026-05-06 18:13 2.3M
20260506T12Z_MSC_CAPS_WindDir_IsbL-1015_RLatLon0.03_PT012H.grib2 2026-05-06 18:13 2.4M
20260506T12Z_MSC_CAPS_WindGust-Max_AGL-10m_RLatLon0.03_PT012H.grib2 2026-05-06 18:13 2.5M
20260506T12Z_MSC_CAPS_WindGust-Min_AGL-10m_RLatLon0.03_PT012H.grib2 2026-05-06 18:13 2.5M
20260506T12Z_MSC_CAPS_WindGust_AGL-10m_RLatLon0.03_PT012H.grib2 2026-05-06 18:13 2.5M
20260506T12Z_MSC_CAPS_WindSpeed_AGL-10m_RLatLon0.03_PT012H.grib2 2026-05-06 18:13 2.1M
20260506T12Z_MSC_CAPS_WindSpeed_AGL-120m_RLatLon0.03_PT012H.grib2 2026-05-06 18:13 1.1M
20260506T12Z_MSC_CAPS_WindSpeed_AGL-40m_RLatLon0.03_PT012H.grib2 2026-05-06 18:13 1.2M
20260506T12Z_MSC_CAPS_WindSpeed_AGL-80m_RLatLon0.03_PT012H.grib2 2026-05-06 18:13 1.1M
20260506T12Z_MSC_CAPS_WindSpeed_IsbL-0050_RLatLon0.03_PT012H.grib2 2026-05-06 18:13 955K
20260506T12Z_MSC_CAPS_WindSpeed_IsbL-0100_RLatLon0.03_PT012H.grib2 2026-05-06 18:13 1.3M
20260506T12Z_MSC_CAPS_WindSpeed_IsbL-0150_RLatLon0.03_PT012H.grib2 2026-05-06 18:13 1.0M
20260506T12Z_MSC_CAPS_WindSpeed_IsbL-0175_RLatLon0.03_PT012H.grib2 2026-05-06 18:13 1.1M
20260506T12Z_MSC_CAPS_WindSpeed_IsbL-0200_RLatLon0.03_PT012H.grib2 2026-05-06 18:13 1.2M
20260506T12Z_MSC_CAPS_WindSpeed_IsbL-0225_RLatLon0.03_PT012H.grib2 2026-05-06 18:13 960K
20260506T12Z_MSC_CAPS_WindSpeed_IsbL-0250_RLatLon0.03_PT012H.grib2 2026-05-06 18:13 1.0M
20260506T12Z_MSC_CAPS_WindSpeed_IsbL-0275_RLatLon0.03_PT012H.grib2 2026-05-06 18:13 1.0M
20260506T12Z_MSC_CAPS_WindSpeed_IsbL-0300_RLatLon0.03_PT012H.grib2 2026-05-06 18:13 1.0M
20260506T12Z_MSC_CAPS_WindSpeed_IsbL-0350_RLatLon0.03_PT012H.grib2 2026-05-06 18:13 1.0M
20260506T12Z_MSC_CAPS_WindSpeed_IsbL-0400_RLatLon0.03_PT012H.grib2 2026-05-06 18:13 1.0M
20260506T12Z_MSC_CAPS_WindSpeed_IsbL-0450_RLatLon0.03_PT012H.grib2 2026-05-06 18:13 1.3M
20260506T12Z_MSC_CAPS_WindSpeed_IsbL-0500_RLatLon0.03_PT012H.grib2 2026-05-06 18:13 1.3M
20260506T12Z_MSC_CAPS_WindSpeed_IsbL-0550_RLatLon0.03_PT012H.grib2 2026-05-06 18:13 1.4M
20260506T12Z_MSC_CAPS_WindSpeed_IsbL-0600_RLatLon0.03_PT012H.grib2 2026-05-06 18:13 1.4M
20260506T12Z_MSC_CAPS_WindSpeed_IsbL-0650_RLatLon0.03_PT012H.grib2 2026-05-06 18:13 1.4M
20260506T12Z_MSC_CAPS_WindSpeed_IsbL-0700_RLatLon0.03_PT012H.grib2 2026-05-06 18:13 1.5M
20260506T12Z_MSC_CAPS_WindSpeed_IsbL-0750_RLatLon0.03_PT012H.grib2 2026-05-06 18:13 1.6M
20260506T12Z_MSC_CAPS_WindSpeed_IsbL-0800_RLatLon0.03_PT012H.grib2 2026-05-06 18:13 1.7M
20260506T12Z_MSC_CAPS_WindSpeed_IsbL-0850_RLatLon0.03_PT012H.grib2 2026-05-06 18:13 1.7M
20260506T12Z_MSC_CAPS_WindSpeed_IsbL-0875_RLatLon0.03_PT012H.grib2 2026-05-06 18:13 1.8M
20260506T12Z_MSC_CAPS_WindSpeed_IsbL-0900_RLatLon0.03_PT012H.grib2 2026-05-06 18:13 1.8M
20260506T12Z_MSC_CAPS_WindSpeed_IsbL-0925_RLatLon0.03_PT012H.grib2 2026-05-06 18:13 1.9M
20260506T12Z_MSC_CAPS_WindSpeed_IsbL-0950_RLatLon0.03_PT012H.grib2 2026-05-06 18:13 1.9M
20260506T12Z_MSC_CAPS_WindSpeed_IsbL-0970_RLatLon0.03_PT012H.grib2 2026-05-06 18:13 2.0M
20260506T12Z_MSC_CAPS_WindSpeed_IsbL-0985_RLatLon0.03_PT012H.grib2 2026-05-06 18:13 2.0M
20260506T12Z_MSC_CAPS_WindSpeed_IsbL-1000_RLatLon0.03_PT012H.grib2 2026-05-06 18:13 2.1M
20260506T12Z_MSC_CAPS_WindSpeed_IsbL-1015_RLatLon0.03_PT012H.grib2 2026-05-06 18:13 2.1M
20260506T12Z_MSC_CAPS_WindU_AGL-10m_RLatLon0.03_PT012H.grib2 2026-05-06 18:13 1.9M
20260506T12Z_MSC_CAPS_WindU_AGL-120m_RLatLon0.03_PT012H.grib2 2026-05-06 18:13 894K
20260506T12Z_MSC_CAPS_WindU_AGL-40m_RLatLon0.03_PT012H.grib2 2026-05-06 18:13 1.2M
20260506T12Z_MSC_CAPS_WindU_AGL-80m_RLatLon0.03_PT012H.grib2 2026-05-06 18:13 1.2M
20260506T12Z_MSC_CAPS_WindU_IsbL-0050_RLatLon0.03_PT012H.grib2 2026-05-06 18:13 942K
20260506T12Z_MSC_CAPS_WindU_IsbL-0100_RLatLon0.03_PT012H.grib2 2026-05-06 18:13 957K
20260506T12Z_MSC_CAPS_WindU_IsbL-0150_RLatLon0.03_PT012H.grib2 2026-05-06 18:13 921K
20260506T12Z_MSC_CAPS_WindU_IsbL-0175_RLatLon0.03_PT012H.grib2 2026-05-06 18:13 731K
20260506T12Z_MSC_CAPS_WindU_IsbL-0200_RLatLon0.03_PT012H.grib2 2026-05-06 18:13 884K
20260506T12Z_MSC_CAPS_WindU_IsbL-0225_RLatLon0.03_PT012H.grib2 2026-05-06 18:13 901K
20260506T12Z_MSC_CAPS_WindU_IsbL-0250_RLatLon0.03_PT012H.grib2 2026-05-06 18:13 920K
20260506T12Z_MSC_CAPS_WindU_IsbL-0275_RLatLon0.03_PT012H.grib2 2026-05-06 18:13 923K
20260506T12Z_MSC_CAPS_WindU_IsbL-0300_RLatLon0.03_PT012H.grib2 2026-05-06 18:13 931K
20260506T12Z_MSC_CAPS_WindU_IsbL-0350_RLatLon0.03_PT012H.grib2 2026-05-06 18:13 947K
20260506T12Z_MSC_CAPS_WindU_IsbL-0400_RLatLon0.03_PT012H.grib2 2026-05-06 18:13 956K
20260506T12Z_MSC_CAPS_WindU_IsbL-0450_RLatLon0.03_PT012H.grib2 2026-05-06 18:13 970K
20260506T12Z_MSC_CAPS_WindU_IsbL-0500_RLatLon0.03_PT012H.grib2 2026-05-06 18:13 872K
20260506T12Z_MSC_CAPS_WindU_IsbL-0550_RLatLon0.03_PT012H.grib2 2026-05-06 18:13 903K
20260506T12Z_MSC_CAPS_WindU_IsbL-0600_RLatLon0.03_PT012H.grib2 2026-05-06 18:13 933K
20260506T12Z_MSC_CAPS_WindU_IsbL-0650_RLatLon0.03_PT012H.grib2 2026-05-06 18:13 972K
20260506T12Z_MSC_CAPS_WindU_IsbL-0700_RLatLon0.03_PT012H.grib2 2026-05-06 18:13 1.0M
20260506T12Z_MSC_CAPS_WindU_IsbL-0750_RLatLon0.03_PT012H.grib2 2026-05-06 18:13 1.1M
20260506T12Z_MSC_CAPS_WindU_IsbL-0800_RLatLon0.03_PT012H.grib2 2026-05-06 18:13 1.1M
20260506T12Z_MSC_CAPS_WindU_IsbL-0850_RLatLon0.03_PT012H.grib2 2026-05-06 18:13 1.2M
20260506T12Z_MSC_CAPS_WindU_IsbL-0875_RLatLon0.03_PT012H.grib2 2026-05-06 18:13 1.3M
20260506T12Z_MSC_CAPS_WindU_IsbL-0900_RLatLon0.03_PT012H.grib2 2026-05-06 18:13 1.3M
20260506T12Z_MSC_CAPS_WindU_IsbL-0925_RLatLon0.03_PT012H.grib2 2026-05-06 18:13 1.3M
20260506T12Z_MSC_CAPS_WindU_IsbL-0950_RLatLon0.03_PT012H.grib2 2026-05-06 18:13 1.4M
20260506T12Z_MSC_CAPS_WindU_IsbL-0970_RLatLon0.03_PT012H.grib2 2026-05-06 18:13 1.4M
20260506T12Z_MSC_CAPS_WindU_IsbL-0985_RLatLon0.03_PT012H.grib2 2026-05-06 18:13 1.4M
20260506T12Z_MSC_CAPS_WindU_IsbL-1000_RLatLon0.03_PT012H.grib2 2026-05-06 18:13 1.8M
20260506T12Z_MSC_CAPS_WindU_IsbL-1015_RLatLon0.03_PT012H.grib2 2026-05-06 18:13 1.9M
20260506T12Z_MSC_CAPS_WindV_AGL-10m_RLatLon0.03_PT012H.grib2 2026-05-06 18:13 2.0M
20260506T12Z_MSC_CAPS_WindV_AGL-120m_RLatLon0.03_PT012H.grib2 2026-05-06 18:13 1.2M
20260506T12Z_MSC_CAPS_WindV_AGL-40m_RLatLon0.03_PT012H.grib2 2026-05-06 18:13 1.2M
20260506T12Z_MSC_CAPS_WindV_AGL-80m_RLatLon0.03_PT012H.grib2 2026-05-06 18:13 1.2M
20260506T12Z_MSC_CAPS_WindV_IsbL-0050_RLatLon0.03_PT012H.grib2 2026-05-06 18:13 767K
20260506T12Z_MSC_CAPS_WindV_IsbL-0100_RLatLon0.03_PT012H.grib2 2026-05-06 18:13 781K
20260506T12Z_MSC_CAPS_WindV_IsbL-0150_RLatLon0.03_PT012H.grib2 2026-05-06 18:13 1.0M
20260506T12Z_MSC_CAPS_WindV_IsbL-0175_RLatLon0.03_PT012H.grib2 2026-05-06 18:13 723K
20260506T12Z_MSC_CAPS_WindV_IsbL-0200_RLatLon0.03_PT012H.grib2 2026-05-06 18:13 877K
20260506T12Z_MSC_CAPS_WindV_IsbL-0225_RLatLon0.03_PT012H.grib2 2026-05-06 18:13 895K
20260506T12Z_MSC_CAPS_WindV_IsbL-0250_RLatLon0.03_PT012H.grib2 2026-05-06 18:13 915K
20260506T12Z_MSC_CAPS_WindV_IsbL-0275_RLatLon0.03_PT012H.grib2 2026-05-06 18:13 710K
20260506T12Z_MSC_CAPS_WindV_IsbL-0300_RLatLon0.03_PT012H.grib2 2026-05-06 18:13 716K
20260506T12Z_MSC_CAPS_WindV_IsbL-0350_RLatLon0.03_PT012H.grib2 2026-05-06 18:13 946K
20260506T12Z_MSC_CAPS_WindV_IsbL-0400_RLatLon0.03_PT012H.grib2 2026-05-06 18:13 952K
20260506T12Z_MSC_CAPS_WindV_IsbL-0450_RLatLon0.03_PT012H.grib2 2026-05-06 18:13 967K
20260506T12Z_MSC_CAPS_WindV_IsbL-0500_RLatLon0.03_PT012H.grib2 2026-05-06 18:13 1.0M
20260506T12Z_MSC_CAPS_WindV_IsbL-0550_RLatLon0.03_PT012H.grib2 2026-05-06 18:13 897K
20260506T12Z_MSC_CAPS_WindV_IsbL-0600_RLatLon0.03_PT012H.grib2 2026-05-06 18:13 928K
20260506T12Z_MSC_CAPS_WindV_IsbL-0650_RLatLon0.03_PT012H.grib2 2026-05-06 18:13 966K
20260506T12Z_MSC_CAPS_WindV_IsbL-0700_RLatLon0.03_PT012H.grib2 2026-05-06 18:13 1.0M
20260506T12Z_MSC_CAPS_WindV_IsbL-0750_RLatLon0.03_PT012H.grib2 2026-05-06 18:13 1.1M
20260506T12Z_MSC_CAPS_WindV_IsbL-0800_RLatLon0.03_PT012H.grib2 2026-05-06 18:13 1.1M
20260506T12Z_MSC_CAPS_WindV_IsbL-0850_RLatLon0.03_PT012H.grib2 2026-05-06 18:13 1.2M
20260506T12Z_MSC_CAPS_WindV_IsbL-0875_RLatLon0.03_PT012H.grib2 2026-05-06 18:13 1.2M
20260506T12Z_MSC_CAPS_WindV_IsbL-0900_RLatLon0.03_PT012H.grib2 2026-05-06 18:13 1.3M
20260506T12Z_MSC_CAPS_WindV_IsbL-0925_RLatLon0.03_PT012H.grib2 2026-05-06 18:13 1.3M
20260506T12Z_MSC_CAPS_WindV_IsbL-0950_RLatLon0.03_PT012H.grib2 2026-05-06 18:13 1.3M
20260506T12Z_MSC_CAPS_WindV_IsbL-0970_RLatLon0.03_PT012H.grib2 2026-05-06 18:13 1.4M
20260506T12Z_MSC_CAPS_WindV_IsbL-0985_RLatLon0.03_PT012H.grib2 2026-05-06 18:13 1.4M
20260506T12Z_MSC_CAPS_WindV_IsbL-1000_RLatLon0.03_PT012H.grib2 2026-05-06 18:13 1.8M
20260506T12Z_MSC_CAPS_WindV_IsbL-1015_RLatLon0.03_PT012H.grib2 2026-05-06 18:13 2.0M